YAOGAN-35 04C (53526 NORAD) Tracking and Keplerian Element Data

This shows tracking and keplerian element data for the satellite.

Feedback or suggestion? Click here.




ElementValue
Catalog53526
NameYAOGAN-35 04C
Epoch Orbit1422
Epoch Day325.25787088
Epoch Year2022
RAAN339.5852
Inclination35.0007
Eccentricity0.0005261
Argument of Perigee120.0318
Mean Anonmoly240.0916
Mean Motion15.22852468
Decay Rate7.298E-05
L11 53526U 22100E 22325.25787088 .00007298 00000+0 30545-3 0 9990
L22 53526 35.0007 339.5852 0005261 120.0318 240.0916 15.22852468 14226



Live tracking and technical data element details for YAOGAN-35 04C (NORAD 53526). YAOGAN-35 04C can be tracked NOW for your location showing map with azimuth and elevation plus other details from your city location.







IsCatalogInMostPopularTable: catalog: 53526, numindb: 4
Update: records affected: 1



GetName: 53526 YAOGAN-35 04C

Hit Count: updated at: Thu, 08 Dec 2022 19:17:16 GMT